This is the latest recevied weather packets stored in our database for station/object WB8SKP-WX. If no packets are shown the sender has not sent any weather packets the latest 10 day(s).
| Time | Temp. | Humidity | Pressure | Rain* | Wind** | Luminosity | Snow |
|---|---|---|---|---|---|---|---|
| 1777749260 | 15° C | 64% | 997.1 hPa | 0 mm | - | - | - |
| 1777748030 | 15.56° C | 59% | 997.5 hPa | 0 mm | - | - | - |
| 1777746830 | 17.78° C | 46% | 996.7 hPa | 0 mm | - | - | - |
| 1777745600 | 17.22° C | 47% | 997.4 hPa | 0 mm | - | - | - |
| 1777744370 | 17.22° C | 45% | 997.2 hPa | 0 mm | - | - | - |
| 1777743170 | 16.67° C | 44% | 997.6 hPa | 0 mm | - | - | - |
| 1777741970 | 16.11° C | 46% | 998 hPa | 0 mm | - | - | - |
| 1777740740 | 16.67° C | 49% | 997.8 hPa | 0 mm | - | - | - |
| 1777739540 | 15.56° C | 50% | 998.1 hPa | 0 mm | - | - | - |
| 1777738340 | 15.56° C | 48% | 998.4 hPa | 0 mm | - | - | - |
| 1777737110 | 15.56° C | 52% | 998.6 hPa | 0 mm | - | - | - |
| 1777735910 | 15° C | 53% | 998.5 hPa | 0 mm | - | - | - |
| 1777734680 | 15° C | 60% | 998.3 hPa | 0 mm | - | - | - |
| 1777733450 | 13.89° C | 61% | 998.2 hPa | 0 mm | - | - | - |
| 1777732250 | 13.89° C | 59% | 998.6 hPa | 0 mm | - | - | - |
| 1777731020 | 13.33° C | 61% | 998.6 hPa | 0 mm | - | - | - |
| 1777729790 | 12.78° C | 66% | 998.4 hPa | 0 mm | - | - | - |
| 1777728590 | 12.22° C | 70% | 998.4 hPa | 0 mm | - | - | - |
| 1777727360 | 11.11° C | 78% | 998.4 hPa | 0 mm | - | - | - |
| 1777726160 | 9.44° C | 95% | 998.4 hPa | 0 mm | - | - | - |
| 1777724960 | 7.78° C | 99% | 998.2 hPa | 0 mm | - | - | - |
| 1777723729 | 6.11° C | 99% | 998.1 hPa | 0 mm | - | - | - |
| 1777722530 | 5.56° C | 99% | 998 hPa | 0 mm | - | - | - |
| 1777721329 | 5° C | 99% | 997.8 hPa | 0 mm | - | - | - |
| 1777720099 | 5° C | 99% | 997.7 hPa | 0 mm | - | - | - |
* Rain latest hour (hover to see other rain measurements)
** Current wind speed in m/s (hover to see current wind gust speed)